Overview Statistics Trail Chart Weather Telemetry Raw packets
 

This is the latest recevied weather packets stored in our database for station/object VE8SKI. If no packets are shown the sender has not sent any weather packets the latest 10 day(s).

<< 16 17 18 19 20 21 22 >>
Time Temp. Humidity Pressure Rain* Wind** Luminosity Snow
1777987716 -0.56° C 63% 1027.9 hPa 0 mm 1.34 m/s, 190° - -
1777987414 -0.56° C 65% 1028.1 hPa 0 mm 0.89 m/s, 229° - -
1777987114 -0.56° C 65% 1028.2 hPa 0 mm 0 m/s - -
1777986814 -0.56° C 66% 1028.4 hPa 0 mm 0 m/s - -
1777986514 -0.56° C 69% 1028.5 hPa 0 mm 0 m/s - -
1777986236 -1.11° C 71% 1028.5 hPa 0 mm 0 m/s - -
1777985915 -1.67° C 74% 1028.6 hPa 0 mm 0 m/s - -
1777985612 -2.22° C 77% 1028.6 hPa 0 mm 0 m/s - -
1777985313 -2.78° C 82% 1028.7 hPa 0 mm 0 m/s - -
1777985013 -3.33° C 86% 1028.7 hPa 0 mm 0 m/s - -
1777984713 -3.33° C 91% 1028.7 hPa 0 mm 0 m/s - -
1777984413 -3.33° C 92% 1028.7 hPa 0 mm 0 m/s - -
1777984113 -3.33° C 93% 1028.8 hPa 0 mm 0 m/s - -
1777983811 -3.33° C 94% 1029 hPa 0 mm 0 m/s - -
1777983511 -3.33° C 95% 1029.1 hPa 0 mm 0 m/s - -
1777983211 -3.33° C 96% 1029.2 hPa 0 mm 0 m/s - -
1777982911 -3.33° C 96% 1029.3 hPa 0 mm 0 m/s - -
1777982612 -3.89° C 96% 1029.4 hPa 0 mm 0 m/s - -
1777982312 -3.89° C 97% 1029.4 hPa 0 mm 0 m/s - -
1777982009 -5° C 97% 1029.5 hPa 0 mm 0 m/s - -
1777981709 -5° C 97% 1029.5 hPa 0 mm 0 m/s - -
1777981410 -5.56° C 97% 1029.6 hPa 0 mm 0 m/s - -
1777981110 -5.56° C 97% 1029.7 hPa 0 mm 0 m/s - -
1777980810 -5.56° C 97% 1029.7 hPa 0 mm 0 m/s - -
1777980510 -5.56° C 97% 1029.7 hPa 0 mm 0 m/s - -

* Rain latest hour (hover to see other rain measurements)
** Current wind speed in m/s (hover to see current wind gust speed)